Tracking 35331 objects as of 15-Sep-2026
HD Live streaming from Space Station
objects crossing your sky now

STARK

Track STARK now!
10-day predictions


NORAD ID: 65299
Int'l Code: 2025-185B
Launch date: August 23, 2025
Source: Republic of Rwanda (RWA)
Launch site: Rocket Lab Launch Complex (RLLC)
Your satellite tracking list
Your tracking list is empty




NASA's NSSDC Master Catalog

Two Line Element Set (TLE):
1 65299U 25185C   26258.17248636  .00001653  00000-0  20924-3 0  9997
2 65299  97.9628 341.3444 0013531 148.5261 211.6765 14.83110356 57188
Source of the keplerian elements: AFSPC